This is the latest recevied weather packets stored in our database for station/object AE5HO. If no packets are shown the sender has not sent any weather packets the latest 10 day(s).
| Time | Temp. | Humidity | Pressure | Rain* | Wind** | Luminosity | Snow |
|---|---|---|---|---|---|---|---|
| 1787675479 | 32.78° C | 52% | 1017.3 hPa | 0 mm | - | 411 W/m² | - |
| 1787675176 | 32.78° C | 51% | 1017.5 hPa | 0 mm | - | 500 W/m² | - |
| 1787674871 | 32.22° C | 52% | 1017.4 hPa | 0 mm | - | 470 W/m² | - |
| 1787674567 | 32.78° C | 53% | 1017.7 hPa | 0 mm | - | 405 W/m² | - |
| 1787674262 | 32.22° C | 53% | 1017.5 hPa | 0 mm | - | 350 W/m² | - |
| 1787673962 | 31.67° C | 55% | 1017.7 hPa | 0 mm | - | 519 W/m² | - |
| 1787673658 | 31.67° C | 56% | 1017.8 hPa | 0 mm | - | 229 W/m² | - |
| 1787673352 | 31.67° C | 56% | 1017.9 hPa | 0 mm | - | 334 W/m² | - |
| 1787673051 | 31.67° C | 56% | 1017.8 hPa | 0 mm | - | 133 W/m² | - |
| 1787672746 | 32.22° C | 56% | 1017.9 hPa | 0 mm | - | 394 W/m² | - |
| 1787672442 | 31.11° C | 58% | 1017.9 hPa | 0 mm | - | 356 W/m² | - |
| 1787672142 | 30.56° C | 58% | 1018 hPa | 0 mm | - | 226 W/m² | - |
| 1787671841 | 30.56° C | 59% | 1018 hPa | 0 mm | - | 187 W/m² | - |
| 1787671538 | 30° C | 60% | 1017.9 hPa | 0 mm | - | 136 W/m² | - |
| 1787671232 | 30° C | 61% | 1017.9 hPa | 0 mm | - | 125 W/m² | - |
| 1787670933 | 29.44° C | 61% | 1017.9 hPa | 0 mm | - | 104 W/m² | - |
| 1787670628 | 29.44° C | 60% | 1017.6 hPa | 0 mm | - | 133 W/m² | - |
| 1787670323 | 29.44° C | 61% | 1017.8 hPa | 0 mm | - | 87 W/m² | - |
| 1787670018 | 28.89° C | 61% | 1017.3 hPa | 0 mm | - | 78 W/m² | - |
| 1787669718 | 28.89° C | 62% | 1017.4 hPa | 0 mm | - | 69 W/m² | - |
| 1787669412 | 28.89° C | 61% | 1017.3 hPa | 0 mm | - | 59 W/m² | - |
| 1787669108 | 28.89° C | 61% | 1017.5 hPa | 0 mm | - | 64 W/m² | - |
| 1787668804 | 28.89° C | 61% | 1017.4 hPa | 0 mm | - | 50 W/m² | - |
| 1787668500 | 28.89° C | 61% | 1017.5 hPa | 0 mm | - | 42 W/m² | - |
| 1787668195 | 28.89° C | 61% | 1017.7 hPa | 0 mm | - | 34 W/m² | - |
* Rain latest hour (hover to see other rain measurements)
** Current wind speed in m/s (hover to see current wind gust speed)